[Date Prev][Date Next][Thread Prev][Thread Next] - [Date Index][Thread Index][Author Index]

2 Line ISS Keps 4-28



ISS
1 25544U 98067A   04119.21095451  .00025714  00000-0  22263-3 0  6637
2 25544  51.6281 220.4756 0011185  76.5881 351.4457 15.68915104310476


----
Via the sarex mailing list at AMSAT.ORG courtesy of AMSAT-NA.
To unsubscribe, send "unsubscribe sarex" to Majordomo@amsat.org



AMSAT Top AMSAT Home